Change the Weather History Date:

Wednesday, May 14, 2014

  Actual Average Record
Temperature  
Mean Temperature 90 °F -  
Max Temperature 97 °F 89 °F 97 °F (2014)
Min Temperature 82 °F 77 °F 75 °F (1999)
Cooling Degree Days 24    
Growing Degree Days 40 (Base 50)    
Moisture  
Dew Point 74 °F    
Average Humidity 61    
Maximum Humidity 74    
Minimum Humidity 44    
Precipitation  
Precipitation 0.00 in 0.25 in - ()
Sea Level Pressure  
Sea Level Pressure 29.79 in    
Wind  
Wind Speed 6 mph ()    
Max Wind Speed 16 mph    
Max Gust Speed -    
Visibility 6.1 miles    
Events Thunderstorm    
Averages and records for this station are not official NWS values.
T = Trace of Precipitation, MM = Missing Value Source: Averaged Metar Reports

Daily Weather History Graph

Daily Weather History Graph

Search for Another Location

Airport or City:

Trip Planner

Search our weather history database for the weather conditions in past years. The results will help you decide how hot, cold, wet, or windy it might be!

Date:

Astronomy

May. 14, 2014 Rise Set
Actual Time 5:28 AM PHT 6:16 PM PHT
Civil Twilight 5:06 AM PHT 6:38 PM PHT
Nautical Twilight 4:39 AM PHT 7:05 PM PHT
Astronomical Twilight 4:12 AM PHT 7:32 PM PHT
Moon 5:51 PM PHT (5/14) 4:50 AM PHT (5/14)
Length of Visible Light 13h 32m
Length of Day
12h 47m
Waxing Gibbous, 99% of the Moon is Illuminated
May 14
Waxing Gibbous
May 15
Full
May 21
Last Quarter
May 29
New
Jun 6
First Quarter

Hourly Weather History & Observations

Time (PHT) Temp. Heat Index Dew Point Humidity Pressure Visibility Wind Dir Wind Speed Gust Speed Precip Events Conditions
12:00 AM 86.0 °F 95.1 °F 75.2 °F 70% 29.83 in 6.2 mi SE 8.1 mph - N/A   Partly Cloudy
2:00 AM 84 °F - 73 °F 61% 29.80 in 6 mi ESE 6.7 mph - -   Scattered Clouds
2:00 AM 84.2 °F 90.9 °F 73.4 °F 70% 29.80 in 6.2 mi SE 6.9 mph - N/A   Partly Cloudy
3:00 AM 84.2 °F 90.9 °F 73.4 °F 70% 29.77 in 6.2 mi ESE 6.9 mph - N/A   Partly Cloudy
4:00 AM 84.2 °F 89.6 °F 71.6 °F 66% 29.77 in 6.2 mi ESE 5.8 mph - N/A   Partly Cloudy
5:00 AM 84 °F - 72 °F 59% 29.80 in 6 mi East 4.5 mph - -   Scattered Clouds
5:00 AM 84.2 °F 89.6 °F 71.6 °F 66% 29.80 in 6.2 mi East 4.6 mph - N/A   Partly Cloudy
6:00 AM 82.4 °F 87.2 °F 71.6 °F 70% 29.80 in 6.2 mi ESE 3.5 mph - N/A   Scattered Clouds
7:00 AM 86.0 °F 91.8 °F 71.6 °F 62% 29.83 in 6.2 mi SE 3.5 mph - N/A   Scattered Clouds
8:00 AM 89 °F - - % 29.85 in 6 mi East 4.5 mph - -  
8:00 AM 87.8 °F 93.8 °F 71.6 °F 58% 29.83 in 6.2 mi Variable 5.8 mph - N/A   Scattered Clouds
9:00 AM 89.6 °F 99.8 °F 75.2 °F 62% 29.86 in 6.2 mi Variable 8.1 mph - N/A   Scattered Clouds
10:00 AM 91.4 °F 102.5 °F 75.2 °F 59% 29.83 in 6.2 mi SE 6.9 mph - N/A   Scattered Clouds
11:00 AM 93 °F - 74 °F 44% 29.84 in 6 mi SE 6.7 mph - -   Partly Cloudy
11:00 AM 93.2 °F 102.4 °F 73.4 °F 52% 29.83 in 6.2 mi SE 6.9 mph - N/A   Partly Cloudy
12:00 PM 95.0 °F 104.5 °F 73.4 °F 49% 29.80 in 6.2 mi Variable 9.2 mph - N/A   Partly Cloudy
1:00 PM 95.0 °F 103.2 °F 71.6 °F 47% 29.77 in 6.2 mi East 9.2 mph - N/A   Partly Cloudy
2:00 PM 94 °F - 76 °F 47% 29.75 in 6 mi West 13.4 mph - -   Scattered Clouds
2:00 PM 93.2 °F 105.0 °F 75.2 °F 56% 29.74 in 6.2 mi West 12.7 mph - N/A   Partly Cloudy
3:00 PM 91.4 °F 102.5 °F 75.2 °F 59% 29.71 in 6.2 mi WSW 16.1 mph - N/A   Partly Cloudy
4:00 PM 91.4 °F 102.5 °F 75.2 °F 59% 29.74 in 6.2 mi WSW 12.7 mph - N/A   Scattered Clouds
5:00 PM 89 °F - 74 °F 52% 29.73 in 6 mi SSW 8.9 mph - -   Partly Cloudy
5:00 PM 87.8 °F 95.6 °F 73.4 °F 62% 29.71 in 6.2 mi SW 9.2 mph - N/A   Mostly Cloudy
6:00 PM 87.8 °F 97.6 °F 75.2 °F 66% 29.74 in 6.2 mi SW 8.1 mph - N/A   Mostly Cloudy
7:00 PM 86.0 °F 95.1 °F 75.2 °F 70% 29.74 in 6.2 mi WSW 6.9 mph - N/A Thunderstorm Thunderstorm
8:00 PM 87 °F - 75 °F 61% 29.79 in 6 mi South 4.5 mph - -   Partly Cloudy
8:00 PM 86.0 °F 95.1 °F 75.2 °F 70% 29.77 in 6.2 mi South 3.5 mph - N/A   Partly Cloudy
9:00 PM - - - N/A% - 6.2 mi South 3.5 mph - N/A   Scattered Clouds
10:00 PM 86.0 °F 95.1 °F 75.2 °F 70% 29.80 in 6.2 mi South 4.6 mph - N/A   Partly Cloudy
11:00 PM 85 °F - 77 °F 71% 29.82 in 6 mi South 4.5 mph - -   Haze
11:00 PM 86.0 °F 96.9 °F 77.0 °F 74% 29.80 in 6.2 mi South 3.5 mph - N/A   Partly Cloudy